Eagle River, WI

2:00 AM CST on December 13, 2017 (GMT -0600)
Eagle River Union

Weather History for KEGV - November, 2011

Change the Weather History Date:

Sunday, November 20, 2011

  Actual Average Record
Temperature  
Mean Temperature 23 °F -  
Max Temperature 26 °F 33 °F 52 °F (1990)
Min Temperature 20 °F 23 °F -1 °F (2014)
Degree Days  
Heating Degree Days 42    
Moisture  
Dew Point 19 °F    
Average Humidity 85    
Maximum Humidity 99    
Minimum Humidity 73    
Precipitation  
Precipitation 0.00 in - - ()
Sea Level Pressure  
Sea Level Pressure 30.20 in    
Wind  
Wind Speed 6 mph (North)    
Max Wind Speed 12 mph    
Max Gust Speed 18 mph    
Visibility 10 miles    
Events Snow    
Averages and records for this station are not official NWS values.
T = Trace of Precipitation, MM = Missing Value Source: NWS Daily Summary

Daily Weather History Graph

Daily Weather History Graph

Search for Another Location

Airport or City:

Trip Planner

Search our weather history database for the weather conditions in past years. The results will help you decide how hot, cold, wet, or windy it might be!

Date:

Astronomy

Nov. 20, 2011 Rise Set
Actual Time 7:03 AM CST 4:21 PM CST
Civil Twilight 6:31 AM CST 4:53 PM CST
Nautical Twilight 5:54 AM CST 5:30 PM CST
Astronomical Twilight 5:19 AM CST 6:05 PM CST
Moon 1:16 AM CST (11/20) 1:23 PM CST (11/20)
Length of Visible Light 10h 22m
Length of Day
9h 17m
Waning Crescent, 27% of the Moon is Illuminated
Nov 20
Waning Crescent
Nov 25
New
Dec 2
First Quarter
Dec 10
Full
Dec 17
Last Quarter

Hourly Weather History & Observations

Time (CST) Temp. Windchill Dew Point Humidity Pressure Visibility Wind Dir Wind Speed Gust Speed Precip Events Conditions
12:15 AM 26.6 °F 17.5 °F 26.2 °F 99% 29.96 in 10.0 mi North 9.2 mph 16.1 mph N/A   Overcast
12:35 AM 26.4 °F 16.0 °F 25.9 °F 98% 29.97 in 10.0 mi North 11.5 mph 18.4 mph N/A   Overcast
12:55 AM 26.2 °F 16.4 °F 25.5 °F 97% 29.99 in 10.0 mi North 10.4 mph - N/A   Overcast
1:15 AM 25.9 °F 16.0 °F 25.0 °F 96% 30.00 in 10.0 mi North 10.4 mph - N/A   Overcast
1:35 AM 25.7 °F 17.1 °F 24.8 °F 96% 30.01 in 10.0 mi North 8.1 mph - N/A   Overcast
1:55 AM 25.3 °F 15.3 °F 24.3 °F 96% 30.02 in 10.0 mi NNE 10.4 mph 18.4 mph N/A   Overcast
2:15 AM 24.8 °F 16.1 °F 23.9 °F 96% 30.03 in 10.0 mi North 8.1 mph - N/A   Overcast
2:35 AM 24.6 °F 15.8 °F 23.9 °F 97% 30.04 in 10.0 mi North 8.1 mph - N/A   Overcast
2:55 AM 24.3 °F 15.4 °F 23.7 °F 98% 30.04 in 10.0 mi NNE 8.1 mph - N/A   Overcast
3:15 AM 23.9 °F 15.8 °F 23.0 °F 96% 30.06 in 10.0 mi North 6.9 mph - N/A   Overcast
3:35 AM 23.9 °F 16.8 °F 22.3 °F 94% 30.07 in 10.0 mi North 5.8 mph - N/A   Overcast
3:55 AM 23.5 °F 13.0 °F 21.9 °F 94% 30.08 in 10.0 mi North 10.4 mph - N/A   Overcast
4:15 AM 23.4 °F 17.4 °F 22.1 °F 95% 30.09 in 10.0 mi North 4.6 mph - N/A   Overcast
4:35 AM 23.2 °F 12.6 °F 21.4 °F 93% 30.10 in 10.0 mi North 10.4 mph - N/A   Overcast
4:55 AM 23.0 °F 11.7 °F 18.9 °F 84% 30.10 in 10.0 mi NNE 11.5 mph - N/A   Overcast
5:15 AM 22.6 °F 13.4 °F 18.7 °F 85% 30.10 in 10.0 mi NNE 8.1 mph - N/A   Overcast
5:55 AM 22.5 °F 15.1 °F 18.5 °F 85% 30.12 in 10.0 mi North 5.8 mph - N/A   Overcast
6:15 AM 22.1 °F 17.4 °F 19.0 °F 88% 30.13 in 10.0 mi North 3.5 mph - N/A   Overcast
6:55 AM 22.1 °F 15.9 °F 18.0 °F 84% 30.17 in 10.0 mi NNW 4.6 mph - N/A   Overcast
7:15 AM 21.9 °F 11.7 °F 17.8 °F 84% 30.18 in 10.0 mi NNW 9.2 mph - N/A   Overcast
7:35 AM 21.6 °F 15.3 °F 16.9 °F 82% 30.21 in 10.0 mi North 4.6 mph - N/A   Overcast
8:15 AM 21.2 °F - 16.9 °F 83% 30.23 in 10.0 mi Calm Calm - N/A Snow Light Snow
8:35 AM 21.2 °F 16.4 °F 17.1 °F 84% 30.24 in 10.0 mi North 3.5 mph - N/A Snow Light Snow
8:55 AM 21.2 °F - 17.2 °F 85% 30.24 in 10.0 mi Calm Calm - N/A Snow Light Snow
9:15 AM 21.2 °F 16.4 °F 17.4 °F 85% 30.24 in 10.0 mi North 3.5 mph - N/A Snow Light Snow
9:35 AM 21.6 °F - 17.2 °F 83% 30.24 in 10.0 mi Calm Calm - N/A Snow Light Snow
9:55 AM 21.7 °F - 17.1 °F 82% 30.25 in 10.0 mi Calm Calm - N/A   Overcast
10:15 AM 21.9 °F - 16.5 °F 80% 30.25 in 10.0 mi Calm Calm - N/A   Overcast
10:35 AM 22.5 °F - 16.3 °F 77% 30.26 in 10.0 mi Calm Calm - N/A   Overcast
10:55 AM 22.6 °F - 16.3 °F 77% 30.26 in 10.0 mi Calm Calm - N/A   Overcast
11:15 AM 22.8 °F - 15.6 °F 74% 30.26 in 10.0 mi Calm Calm - N/A   Overcast
11:35 AM 23.0 °F - 15.6 °F 73% 30.27 in 10.0 mi Calm Calm - N/A   Overcast
11:55 AM 23.0 °F - 16.2 °F 75% 30.27 in 10.0 mi Calm Calm - N/A   Overcast
12:15 PM 23.0 °F - 16.5 °F 76% 30.28 in 10.0 mi Calm Calm - N/A Snow Light Snow
12:55 PM 23.0 °F 17.0 °F 17.4 °F 79% 30.28 in 10.0 mi WSW 4.6 mph - N/A   Overcast
1:15 PM 23.0 °F 17.0 °F 16.9 °F 77% 30.28 in 10.0 mi West 4.6 mph - N/A Snow Light Snow
2:15 PM 23.0 °F - 16.5 °F 76% 30.27 in 10.0 mi Calm Calm - N/A   Overcast
2:35 PM 23.2 °F - 16.5 °F 76% 30.27 in 10.0 mi Calm Calm - N/A Snow Light Snow
2:55 PM 23.0 °F - 17.1 °F 78% 30.27 in 10.0 mi Calm Calm - N/A   Overcast
3:15 PM 23.0 °F - 17.2 °F 79% 30.27 in 10.0 mi Calm Calm - N/A   Overcast
3:35 PM 23.0 °F 18.4 °F 17.6 °F 80% 30.27 in 10.0 mi WNW 3.5 mph - N/A   Overcast
3:55 PM 22.8 °F 18.2 °F 17.1 °F 79% 30.28 in 10.0 mi West 3.5 mph - N/A   Overcast
4:15 PM 22.6 °F 18.0 °F 17.4 °F 80% 30.28 in 10.0 mi NW 3.5 mph - N/A   Overcast
4:35 PM 22.6 °F - 16.9 °F 79% 30.28 in 10.0 mi Calm Calm - N/A   Overcast
4:55 PM 22.5 °F - 17.4 °F 81% 30.28 in 10.0 mi Calm Calm - N/A   Overcast
5:15 PM 22.3 °F - 17.4 °F 82% 30.29 in 10.0 mi Calm Calm - N/A   Overcast
5:35 PM 22.5 °F - 16.9 °F 79% 30.29 in 10.0 mi Calm Calm - N/A   Overcast
5:55 PM 22.1 °F - 17.4 °F 82% 30.29 in 10.0 mi Calm Calm - N/A   Overcast
6:15 PM 22.3 °F - 17.6 °F 82% 30.29 in 10.0 mi Calm Calm - N/A   Overcast
6:35 PM 21.7 °F - 18.3 °F 87% 30.29 in 10.0 mi Calm Calm - N/A   Overcast
6:55 PM 21.9 °F - 17.1 °F 82% 30.28 in 10.0 mi Calm Calm - N/A   Overcast
7:15 PM 21.4 °F - 17.1 °F 83% 30.28 in 10.0 mi Calm Calm - N/A   Overcast
7:35 PM 21.4 °F - 17.1 °F 83% 30.28 in 10.0 mi Calm Calm - N/A   Overcast
7:55 PM 21.6 °F - 17.1 °F 83% 30.28 in 10.0 mi Calm Calm - N/A   Overcast
8:15 PM 21.2 °F 16.4 °F 17.2 °F 85% 30.28 in 10.0 mi SE 3.5 mph - N/A   Overcast
8:35 PM 20.8 °F - 16.9 °F 85% 30.28 in 10.0 mi Calm Calm - N/A   Overcast
8:55 PM 20.1 °F - 16.9 °F 87% 30.28 in 10.0 mi Calm Calm - N/A   Overcast
9:15 PM 18.0 °F - 17.4 °F 98% 30.28 in 10.0 mi Calm Calm - N/A   Overcast
9:35 PM 18.0 °F 12.7 °F 18.0 °F 100% 30.28 in 10.0 mi South 3.5 mph - N/A   Overcast
9:55 PM 18.9 °F 13.7 °F 18.5 °F 98% 30.27 in 10.0 mi South 3.5 mph - N/A   Overcast
10:15 PM 19.4 °F - 18.9 °F 98% 30.27 in 10.0 mi Calm Calm - N/A   Overcast
10:35 PM 19.4 °F - 18.5 °F 96% 30.27 in 10.0 mi Calm Calm - N/A   Overcast
10:55 PM 18.7 °F - 18.3 °F 98% 30.27 in 10.0 mi Calm Calm - N/A   Overcast
11:15 PM 18.0 °F - 18.0 °F 100% 30.27 in 10.0 mi Calm Calm - N/A   Overcast
11:35 PM 17.8 °F - 17.4 °F 98% 30.28 in 10.0 mi Calm Calm - N/A   Overcast
11:55 PM 19.4 °F - 18.9 °F 98% 30.27 in 10.0 mi Calm Calm - N/A   Overcast